Hof, Germany

6:31 PM CET on February 13, 2016 (GMT +0100)
Hof-Plauen

Weather History for EDQM - October, 2012

Change the Weather History Date:

Friday, October 12, 2012

  Actual Average Record
Temperature  
Mean Temperature 43 °F -  
Max Temperature 50 °F 52 °F 66 °F (2001)
Min Temperature 36 °F 39 °F 24 °F (2015)
Degree Days  
Heating Degree Days 22    
Moisture  
Dew Point 39 °F    
Average Humidity 84    
Maximum Humidity 100    
Minimum Humidity 68    
Precipitation  
Precipitation 0.04 in - - ()
Sea Level Pressure  
Sea Level Pressure 29.83 in    
Wind  
Wind Speed 5 mph ()    
Max Wind Speed 18 mph    
Max Gust Speed -    
Visibility 5.3 miles    
Events Rain    
Averages and records for this station are not official NWS values.
T = Trace of Precipitation, MM = Missing Value Source: Averaged Metar Reports

Daily Weather History Graph

Daily Weather History Graph

Search for Another Location

Airport or City:

Trip Planner

Search our weather history database for the weather conditions in past years. The results will help you decide how hot, cold, wet, or windy it might be!

Date:

Astronomy

Oct. 12, 2012 Rise Set
Actual Time 7:30 AM CEST 6:26 PM CEST
Civil Twilight 6:57 AM CEST 6:59 PM CEST
Nautical Twilight 6:20 AM CEST 7:36 PM CEST
Astronomical Twilight 5:42 AM CEST 8:14 PM CEST
Moon 3:36 AM CEST (10/12) 4:41 PM CEST (10/12)
Length of Visible Light 12h 01m
Length of Day
10h 56m
Waning Crescent, 12% of the Moon is Illuminated
Oct 12
Waning Crescent
Oct 15
New
Oct 22
First Quarter
Oct 29
Full
Nov 7
Last Quarter

Hourly Weather History & Observations

Time (CEST) Temp. Windchill Dew Point Humidity Pressure Visibility Wind Dir Wind Speed Gust Speed Precip Events Conditions
12:20 AM 37.4 °F - 32.0 °F 81% 29.89 in 6.2 mi Variable 2.3 mph - N/A   Unknown
12:50 AM 35.6 °F - 32.0 °F 87% 29.86 in 6.2 mi Variable 2.3 mph - N/A   Unknown
1:20 AM 35.6 °F - 32.0 °F 87% 29.86 in 5.6 mi Variable 2.3 mph - N/A   Unknown
1:50 AM 33.8 °F 30.8 °F 30.2 °F 87% 29.86 in 5.6 mi SE 3.5 mph - N/A   Unknown
2:00 AM 36 °F - 34 °F 91% 29.91 in 4 mi SE 4.5 mph - -   Mist
2:20 AM 35.6 °F 32.8 °F 32.0 °F 87% 29.86 in 6.2 mi SSE 3.5 mph - N/A   Unknown
2:50 AM 35.6 °F 32.8 °F 32.0 °F 87% 29.86 in 6.2 mi SSW 3.5 mph - N/A   Mostly Cloudy
3:00 AM 37 °F - 35 °F 87% 29.90 in 4 mi SSE 4.5 mph - -   Mist
3:20 AM 37.4 °F - 33.8 °F 87% 29.83 in 6.2 mi Variable 2.3 mph - N/A   Overcast
3:50 AM 39.2 °F 35.9 °F 33.8 °F 81% 29.83 in 6.2 mi SSE 4.6 mph - N/A   Overcast
4:00 AM 37 °F - 35 °F 89% 29.88 in 4 mi SE 4.5 mph - -   Mist
4:20 AM 39.2 °F - 33.8 °F 81% 29.83 in 6.2 mi Variable 2.3 mph - N/A   Overcast
4:50 AM 39.2 °F - 35.6 °F 87% 29.83 in 6.2 mi Variable 1.2 mph - N/A   Overcast
5:20 AM 39.2 °F 37.0 °F 35.6 °F 87% 29.83 in 6.2 mi South 3.5 mph - N/A   Overcast
5:50 AM 39.2 °F 35.9 °F 33.8 °F 81% 29.80 in 6.2 mi SSE 4.6 mph - N/A   Overcast
6:00 AM 39 °F - 36 °F 87% 29.85 in 4 mi SE 4.5 mph - -   Mist
6:20 AM 39.2 °F 37.0 °F 33.8 °F 81% 29.80 in 6.2 mi SSE 3.5 mph - N/A   Overcast
6:50 AM 39.2 °F 37.0 °F 33.8 °F 81% 29.80 in 6.2 mi South 3.5 mph - N/A   Overcast
7:00 AM 40 °F - 36 °F 82% 29.85 in 4 mi SSE 4.5 mph - -   Mist
7:20 AM 39.2 °F 35.0 °F 33.8 °F 81% 29.80 in 6.2 mi SSE 5.8 mph - N/A   Overcast
7:50 AM 39.2 °F 33.6 °F 33.8 °F 81% 29.80 in 6.2 mi SSE 8.1 mph - N/A   Mostly Cloudy
8:00 AM 40 °F - 37 °F 83% 29.85 in 11 mi SSE 4.5 mph - -   Mostly Cloudy
8:20 AM 39.2 °F 33.6 °F 33.8 °F 81% 29.80 in 6.2 mi SE 8.1 mph - N/A   Scattered Clouds
8:50 AM 41.0 °F 37.1 °F 33.8 °F 76% 29.80 in 6.2 mi SE 5.8 mph - N/A   Partly Cloudy
9:00 AM 40 °F - 37 °F 83% 29.86 in 7 mi SSE 6.7 mph - -   Scattered Clouds
9:20 AM 42.8 °F 38.6 °F 35.6 °F 76% 29.80 in - SSE 6.9 mph - N/A   Clear
9:50 AM 42.8 °F 38.6 °F 35.6 °F 76% 29.80 in 6.2 mi SSE 6.9 mph - N/A   Partly Cloudy
10:00 AM 43 °F - 38 °F 75% 29.83 in 11 mi SE 6.7 mph - -   Scattered Clouds
10:20 AM 44.6 °F 39.7 °F 37.4 °F 76% 29.80 in 6.2 mi SSE 9.2 mph - N/A   Partly Cloudy
10:50 AM 46.4 °F 42.4 °F 37.4 °F 71% 29.80 in 6.2 mi SE 8.1 mph - N/A   Mostly Cloudy
11:20 AM 46.4 °F 42.9 °F 37.4 °F 71% 29.80 in - SE 6.9 mph - N/A   Clear
11:50 AM 48.2 °F - 39.2 °F 71% 29.80 in 6.2 mi SSE 8.1 mph - N/A   Mostly Cloudy
12:00 PM 47 °F - 40 °F 68% 29.81 in 12 mi South 11.2 mph - -   Overcast
12:20 PM 48.2 °F - 39.2 °F 71% 29.80 in - SSE 9.2 mph - N/A   Clear
12:50 PM 48.2 °F - 39.2 °F 71% 29.80 in 6.2 mi SSE 9.2 mph - N/A Rain Light Rain
1:00 PM 48 °F - 41 °F 68% 29.80 in 11 mi South 8.9 mph - - Rain Light Rain
1:20 PM 48.2 °F - 41.0 °F 76% 29.80 in 6.2 mi SSE 8.1 mph - N/A Rain Light Rain
1:50 PM 48.2 °F - 42.8 °F 82% 29.77 in 4.3 mi SSE 8.1 mph - N/A Rain Light Rain
2:00 PM 47 °F - 44 °F 85% 29.80 in 9 mi SSE 6.7 mph - - Rain Light Rain
2:20 PM 48.2 °F - 44.6 °F 87% 29.77 in 4.3 mi SSE 9.2 mph - N/A Rain Rain
2:50 PM 46.4 °F 41.9 °F 42.8 °F 87% 29.77 in 4.3 mi SSE 9.2 mph - N/A Rain Light Rain
3:00 PM 47 °F - 46 °F 93% 29.79 in 5 mi SSE 6.7 mph - - Rain Light Rain
3:20 PM 46.4 °F 42.4 °F 44.6 °F 93% 29.77 in - SSE 8.1 mph - N/A Rain Light Rain
3:50 PM 46.4 °F 42.9 °F 44.6 °F 93% 29.77 in 2.2 mi SSE 6.9 mph - N/A Rain Light Rain
4:00 PM 47 °F - 46 °F 95% 29.79 in 1 mi SSE 6.7 mph - - Rain Light Rain
4:20 PM 46.4 °F 42.4 °F 44.6 °F 93% 29.77 in 1.7 mi SSE 8.1 mph - N/A   Drizzle
4:50 PM 48.2 °F - 44.6 °F 87% 29.80 in 1.9 mi SSE 4.6 mph - N/A Rain Light Rain
5:20 PM 48.2 °F - 44.6 °F 87% 29.80 in 1.6 mi South 4.6 mph - N/A Rain Light Rain
5:50 PM 48.2 °F - 44.6 °F 87% 29.80 in 0.8 mi South 3.5 mph - N/A   Drizzle
6:20 PM 48.2 °F - 44.6 °F 87% 29.83 in 0.6 mi South 4.6 mph - N/A   Drizzle
6:50 PM 48.2 °F - 46.4 °F 93% 29.83 in 1.1 mi SSW 5.8 mph - N/A   Drizzle
7:00 PM 49 °F - 49 °F 98% 29.84 in 1 mi SW 4.5 mph - - Rain Light Drizzle
7:20 PM 48.2 °F - 46.4 °F 93% 29.83 in 2.2 mi SW 8.1 mph - N/A   Drizzle
7:50 PM 48.2 °F - 46.4 °F 93% 29.86 in 2.8 mi SW 6.9 mph - N/A   Overcast
8:00 PM 48 °F - 48 °F 100% 29.86 in 2 mi WSW 4.5 mph - - Rain Light Drizzle
8:50 PM 48.2 °F - 46.4 °F 93% 29.86 in 6.2 mi SW 8.1 mph - N/A Rain Light Rain Showers
9:00 PM 48 °F - 47 °F 96% 29.88 in 5 mi WSW 6.7 mph - - Rain Light Rain
9:20 PM 50.0 °F - 46.4 °F 87% 29.89 in 6.2 mi SW 9.2 mph - N/A   Mostly Cloudy
9:50 PM 48.2 °F - 42.8 °F 82% 29.89 in 6.2 mi WSW 15.0 mph - N/A Rain Light Rain Showers
10:00 PM 48 °F - 45 °F 86% 29.89 in 4 mi West 11.2 mph - - Rain Light Rain
10:20 PM 46.4 °F 39.2 °F 41.0 °F 81% 29.89 in 6.2 mi WSW 18.4 mph - N/A   Mostly Cloudy
10:50 PM 46.4 °F 40.4 °F 41.0 °F 81% 29.92 in 6.2 mi West 13.8 mph - N/A   Scattered Clouds
11:20 PM 46.4 °F 40.7 °F 41.0 °F 81% 29.92 in 6.2 mi WSW 12.7 mph - N/A   Mostly Cloudy
11:50 PM 44.6 °F 38.8 °F 41.0 °F 87% 29.92 in 6.2 mi WSW 11.5 mph - N/A   Scattered Clouds